Regional Weather Roundup
Issued by NWS Charleston, SC

Current Version | Previous Version | Text Only | Print | Product List | Glossary On
Versions: 1 2 3 4 5 6 7 8 9 10 11 12 13 14 15 16 17 18 19 20 21 22 23 24 25 26 27 28 29 30 31 32 33 34 35 36 37 38 39 40 41 42 43 44 45 46 47 48 49 50
000 ASUS42 KCHS 221127 RWRCHS REGIONAL WEATHER ROUNDUP NATIONAL WEATHER SERVICE CHARLESTON SC 700 AM EDT WED MAR 22 2017 NOTE: "FAIR" INDICATES FEW OR NO CLOUDS BELOW 12,000 FEET WITH NO SIGNIFICANT WEATHER AND/OR OBSTRUCTIONS TO VISIBILITY. NOT ALL STATIONS ARE QUALITY CONTROLLED. USE DATA WITH CAUTION... ESPECIALLY DEWPOINT OBSERVATIONS. SCZ027-030-031-034>040-042>050-221200- ...SOUTHEAST SOUTH CAROLINA... CITY SKY/WX TMP DP RH WIND PRES REMARKS N CHARLESTON PTCLDY 60 57 89 W6 29.95S WATERFRONT PRK N/A 62 59 90 VRB2 29.94R JOHNS ISLAND FAIR 61 59 94 CALM 29.96R PINOPOLIS N/A 61 59 94 SW7 29.86R MONCKS CORNER FAIR 57 55 94 W3 29.96R SUMMERVILLE FAIR 55 55 100 W5 29.97S BEAUFORT MCAS CLEAR 57 55 93 N3 29.97R BEAUFORT ARPT FAIR 61 57 88 NW5 29.97R HILTON HEAD IS CLEAR 61 57 88 CALM 29.96S WALTERBORO SUNNY 55 55 100 CALM 29.98R ALLENDALE FAIR 57 57 100 CALM 29.98R FOG ...SOUTHERN MIDLANDS AND PEE DEE... CITY SKY/WX TMP DP RH WIND PRES REMARKS GEORGETOWN FAIR 59 59 100 W8 29.95R KINGSTREE CLOUDY 57 55 94 CALM 29.96R ORANGEBURG CLEAR 58 57 97 W5 29.97R BARNWELL FAIR 57 57 100 CALM 29.99R AIKEN FAIR 54 54 100 NW7 30.02R MANNING FAIR 57 55 94 CALM 29.97R COLUMBIA CLOUDY 60 57 89 W6 29.96R SUMTER PTCLDY 59 57 94 NW7 29.95R FLORENCE PTCLDY 58 58 100 NW6 29.96R MYRTLE BEACH MOCLDY 59 59 100 W8 29.95R N MYRTLE BEACH CLOUDY 59 59 100 W3 29.91R $$ GAZ063-065-086>088-099>101-113>116-118-119-134>141-150-221200- ...SOUTHEAST GEORGIA... CITY SKY/WX TMP DP RH WIND PRES REMARKS SAVANNAH ARPT PTCLDY 59 53 80 CALM 29.97R HUNTER AAF PTCLDY 60 60 98 W5 29.94R FORT STEWART CLEAR 63 59 88 SW3 29.95R STATESBORO NOT AVBL SYLVANIA SUNNY N/A N/A N/A CALM 30.00R CLAXTON FAIR N/A N/A N/A CALM 29.99R ...CSRA...CENTRAL AND FAR SOUTHEAST GEORGIA... CITY SKY/WX TMP DP RH WIND PRES REMARKS THOMSON N/A 56 56 100 CALM 30.04R VSB 3/4 AUGUSTA-BUSH CLEAR 55 53 93 CALM 29.98R AUGUSTA-DANIEL CLEAR 60 56 86 NW7 29.99R SWAINSBORO FAIR 57 55 94 NW6 30.01R VIDALIA CLEAR 64 59 82 W5 30.00R EASTMAN FAIR 58 58 100 CALM 30.04R FOG HAZLEHURST FAIR 64 64 100 CALM 30.00R ALMA CLEAR 60 60 100 SW3 29.99S FOG WAYCROSS PTCLDY 62 62 100 W6 30.02R JESUP FAIR 63 59 88 W3 30.00R BAXLEY FAIR 63 63 100 W3 30.00R BRUNSWICK MOCLDY 63 63 100 SW10 30.00S SAINT SIMONS MOCLDY 62 60 93 SW12 29.99S $$ SCZ027-028-034-036>038-045-046-048>050-GAZ119-141-221200- ...LAKE AND SUPPLEMENTAL COASTAL OBSERVATIONS... STATION/POSITION TIME TEMP WIND PRES WAVE SWELL AIR SEA DIR/SP/G HT/PER HT/PER/DIR (UTC) (F) (DEG/KT/KT) (MB) (FT/S) (FT/S/D) WINYAH BAY 1045 60 260/ 5 1013.0S LAKE MURRAY 1030 60 300/ 3/ 7 1014.2R ACE BASIN NERRS 1030 62 250/ 2 1014.0S FORT PULASKI 1100 62 60 290/ 4/ 5 1015.0 SAPELO ISLAND 1100 63 220/ 7 1015.0 $$ ANZ835-935-AMZ111-154-330-350-352-354-370-450-454-472-221200- ...C-MAN AND BUOY OBSERVATIONS... STATION/POSITION TIME TEMP WIND PRES WAVE SWELL AIR SEA DIR/SP/G HT/PER HT/PER/DIR (UTC) (F) (DEG/KT/KT) (MB) (FT/S) (FT/S/D) BUOY 41004 1050 65 66 290/ 14/ 16 1013.1R 4/ 6 2/140/11 BUOY 41008 1050 63 61 230/ 16/ 17 1014.3F 3/ 6 2/ 70/12 FOLLY BEACH CMAN 1100 60 270/ 4/ 5 1014.8R CAPERS NEARSHORE 1008 60 280/ 8/ 12 1013.7R FRIPP NEARSHORE 1108 62 59 300/ 6/ 8 1014.5R STATION/POSITION TIME TEMP WIND PRES WAVE SWELL AIR SEA DIR/SP/G HT/PER HT/PER/DIR (UTC) (F) (DEG/KT/KT) (MB) (FT/S) (FT/S/D) 5E ST. MARYS GA 1100 63 N/A 2/11 2/100/11 FRYING PAN BUOY 1110 63 66 270/ 16/ 19 1012.5 BUOY 41025 1050 59 72 40/ 16/ 17 1011.7R 6/11 5/ 50/11 CAPE LOOKOUT NC 1100 56 40/ 18/ 20 1009.9S BUOY 41002 1050 73 75 220/ 21/ 27 1013.7F 9/ 7 2/ 20/11 BUOY 41010 NOT AVBL ST AUGUSTINE FL 1100 62 64 260/ 11/ 16 1017.7R $$

USA.gov is the U.S. government's official web portal to all federal, state and local government web resources and services.